• In Czech Republic
  • List of Countries
  • For 7 days
  • Water Temperature
  • Satellite Maps
  • Weather Map
  • Weather Widgets
  • user-avatar
    Login

    Hourly Weather Punakha

    Today, 21 September, Friday

    Time Temperature Precipitation Wind Pressure Humidity
    00:00 +18°C° 0 mm 1 mps 586 mmHg 75%
    01:00 +18°C° 0.2 mm 1 mps 586 mmHg 76%
    02:00 +18°C° 0.2 mm 1 mps 586 mmHg 76%
    03:00 +16°C° 0.2 mm 0 mps 586 mmHg 77%
    04:00 +18°C° 0.1 mm 1 mps 586 mmHg 78%
    05:00 +18°C° 0.1 mm 1 mps 586 mmHg 78%
    06:00 +16°C° 0.1 mm 1 mps 586 mmHg 79%
    07:00 +19°C° 0.1 mm 1 mps 587 mmHg 73%
    08:00 +21°C° 0.1 mm 1 mps 588 mmHg 67%
    09:00 +23°C° 0.1 mm 2 mps 589 mmHg 61%
    10:00 +24°C° 0.1 mm 2 mps 589 mmHg 61%
    11:00 +24°C° 0.1 mm 2 mps 589 mmHg 61%
    12:00 +25°C° 0.1 mm 3 mps 589 mmHg 61%
    13:00 +25°C° 0.1 mm 3 mps 589 mmHg 62%
    14:00 +24°C° 0.1 mm 2 mps 588 mmHg 64%
    15:00 +24°C° 0.1 mm 2 mps 588 mmHg 65%
    16:00 +23°C° 0.1 mm 2 mps 587 mmHg 73%
    17:00 +21°C° 0.1 mm 1 mps 586 mmHg 80%
    18:00 +19°C° 0.1 mm 1 mps 586 mmHg 88%
    19:00 +19°C° 0 mm 1 mps 586 mmHg 89%
    20:00 +19°C° 0 mm 1 mps 587 mmHg 90%
    21:00 +16°C° 0 mm 0 mps 587 mmHg 90%
    22:00 +16°C° 0 mm 0 mps 587 mmHg 89%
    23:00 +16°C° 0 mm 0 mps 587 mmHg 88%

    Tomorrow, 22 September, Saturday

    Time Temperature Precipitation Wind Pressure Humidity
    00:00 +16°C° 0 mm 0 mps 588 mmHg 87%
    01:00 +18°C° 0 mm 1 mps 587 mmHg 86%
    02:00 +16°C° 0 mm 1 mps 587 mmHg 86%
    03:00 +16°C° 0 mm 1 mps 587 mmHg 85%
    04:00 +16°C° 0 mm 1 mps 587 mmHg 84%
    05:00 +16°C° 0 mm 1 mps 587 mmHg 83%
    06:00 +15°C° 0 mm 1 mps 587 mmHg 82%
    07:00 +19°C° 0 mm 1 mps 588 mmHg 73%
    08:00 +22°C° 0 mm 1 mps 589 mmHg 65%
    09:00 +24°C° 0 mm 1 mps 591 mmHg 56%
    10:00 +25°C° 0 mm 2 mps 591 mmHg 54%
    11:00 +26°C° 0 mm 2 mps 590 mmHg 52%
    12:00 +27°C° 0 mm 3 mps 590 mmHg 51%
    13:00 +26°C° 0.1 mm 3 mps 589 mmHg 55%
    14:00 +26°C° 0.1 mm 3 mps 588 mmHg 60%
    15:00 +25°C° 0.1 mm 3 mps 587 mmHg 65%
    16:00 +23°C° 0 mm 2 mps 587 mmHg 74%
    17:00 +21°C° 0 mm 2 mps 586 mmHg 83%
    18:00 +20°C° 0 mm 1 mps 586 mmHg 92%
    19:00 +20°C° 0 mm 1 mps 586 mmHg 92%
    20:00 +19°C° 0 mm 1 mps 587 mmHg 92%
    21:00 +17°C° 0 mm 0 mps 587 mmHg 93%
    22:00 +19°C° 0 mm 1 mps 587 mmHg 91%
    23:00 +18°C° 0 mm 1 mps 587 mmHg 90%

    Day after tomorrow, 23 September, Sunday

    Time Temperature Precipitation Wind Pressure Humidity
    00:00 +18°C° 0 mm 1 mps 587 mmHg 89%
    01:00 +16°C° 0 mm 1 mps 586 mmHg 87%
    02:00 +16°C° 0 mm 1 mps 586 mmHg 86%
    03:00 +16°C° 0 mm 1 mps 586 mmHg 85%
    04:00 +16°C° 0 mm 1 mps 586 mmHg 83%
    05:00 +15°C° 0 mm 1 mps 586 mmHg 82%
    06:00 +15°C° 0 mm 1 mps 586 mmHg 80%
    07:00 +19°C° 0 mm 1 mps 587 mmHg 71%
    08:00 +22°C° 0 mm 1 mps 589 mmHg 62%
    09:00 +24°C° 0 mm 2 mps 590 mmHg 53%
    10:00 +25°C° 0 mm 2 mps 590 mmHg 53%
    11:00 +26°C° 0 mm 2 mps 590 mmHg 52%
    12:00 +27°C° 0 mm 3 mps 590 mmHg 52%
    13:00 +26°C° 0.1 mm 3 mps 589 mmHg 57%
    14:00 +25°C° 0.1 mm 3 mps 588 mmHg 62%
    15:00 +25°C° 0.1 mm 3 mps 587 mmHg 68%
    16:00 +23°C° 0.1 mm 2 mps 586 mmHg 75%
    17:00 +21°C° 0.1 mm 2 mps 586 mmHg 83%
    18:00 +20°C° 0.1 mm 1 mps 585 mmHg 91%
    19:00 +20°C° 0 mm 1 mps 585 mmHg 92%
    20:00 +19°C° 0 mm 1 mps 586 mmHg 93%
    21:00 +17°C° 0 mm 0 mps 586 mmHg 94%
    22:00 +17°C° 0 mm 0 mps 586 mmHg 92%
    23:00 +17°C° 0 mm 0 mps 586 mmHg 91%

    24 September, Monday

    Time Temperature Precipitation Wind Pressure Humidity
    00:00 +17°C° 0 mm 0 mps 586 mmHg 89%
    01:00 +17°C° 0 mm 0 mps 585 mmHg 89%
    02:00 +16°C° 0 mm 0 mps 585 mmHg 88%
    03:00 +16°C° 0 mm 0 mps 585 mmHg 87%
    04:00 +16°C° 0 mm 0 mps 585 mmHg 87%
    05:00 +16°C° 0 mm 0 mps 585 mmHg 86%
    06:00 +16°C° 0 mm 0 mps 585 mmHg 86%
    07:00 +20°C° 0 mm 1 mps 586 mmHg 78%
    08:00 +22°C° 0 mm 1 mps 587 mmHg 71%
    09:00 +24°C° 0 mm 2 mps 588 mmHg 63%
    10:00 +24°C° 0 mm 2 mps 588 mmHg 62%
    11:00 +25°C° 0 mm 2 mps 587 mmHg 60%
    12:00 +26°C° 0 mm 3 mps 587 mmHg 59%
    13:00 +25°C° 0.1 mm 3 mps 586 mmHg 63%
    14:00 +24°C° 0.1 mm 3 mps 585 mmHg 67%
    15:00 +24°C° 0.1 mm 2 mps 584 mmHg 72%
    16:00 +21°C° 0.1 mm 2 mps 584 mmHg 78%
    17:00 +20°C° 0.1 mm 2 mps 584 mmHg 84%
    18:00 +20°C° 0.1 mm 1 mps 583 mmHg 91%
    19:00 +20°C° 0 mm 1 mps 584 mmHg 91%
    20:00 +20°C° 0 mm 1 mps 584 mmHg 92%
    21:00 +17°C° 0 mm 0 mps 585 mmHg 92%
    22:00 +17°C° 0 mm 0 mps 584 mmHg 92%
    23:00 +17°C° 0 mm 0 mps 584 mmHg 93%

    25 September, Tuesday

    Time Temperature Precipitation Wind Pressure Humidity
    00:00 +16°C° 0 mm 0 mps 584 mmHg 93%
    01:00 +16°C° 0 mm 0 mps 584 mmHg 92%
    02:00 +16°C° 0 mm 0 mps 583 mmHg 91%
    03:00 +16°C° 0 mm 0 mps 583 mmHg 90%
    04:00 +15°C° 0 mm 0 mps 583 mmHg 90%
    05:00 +15°C° 0 mm 0 mps 583 mmHg 90%
    06:00 +15°C° 0 mm 0 mps 583 mmHg 90%
    07:00 +19°C° 0 mm 1 mps 584 mmHg 81%
    08:00 +21°C° 0 mm 1 mps 585 mmHg 73%
    09:00 +23°C° 0 mm 1 mps 587 mmHg 64%
    10:00 +24°C° 0 mm 2 mps 586 mmHg 62%
    11:00 +25°C° 0 mm 2 mps 586 mmHg 59%
    12:00 +26°C° 0 mm 3 mps 586 mmHg 57%
    13:00 +25°C° 0.1 mm 2 mps 585 mmHg 63%
    14:00 +24°C° 0.1 mm 2 mps 584 mmHg 69%
    15:00 +23°C° 0.1 mm 2 mps 583 mmHg 75%
    16:00 +21°C° 0.1 mm 2 mps 582 mmHg 81%
    17:00 +20°C° 0.1 mm 2 mps 582 mmHg 87%
    18:00 +20°C° 0.1 mm 1 mps 582 mmHg 94%
    19:00 +20°C° 0 mm 1 mps 582 mmHg 93%
    20:00 +20°C° 0 mm 1 mps 583 mmHg 93%
    21:00 +19°C° 0 mm 1 mps 584 mmHg 92%
    22:00 +17°C° 0 mm 0 mps 584 mmHg 91%
    23:00 +17°C° 0 mm 0 mps 583 mmHg 90%

    26 September, Wednesday

    Time Temperature Precipitation Wind Pressure Humidity
    00:00 +17°C° 0 mm 0 mps 583 mmHg 89%
    01:00 +16°C° 0 mm 0 mps 583 mmHg 89%
    02:00 +16°C° 0 mm 0 mps 582 mmHg 89%
    03:00 +15°C° 0 mm 0 mps 582 mmHg 89%
    04:00 +15°C° 0 mm 0 mps 582 mmHg 89%
    05:00 +15°C° 0 mm 0 mps 582 mmHg 88%
    06:00 +14°C° 0 mm 0 mps 582 mmHg 88%
    07:00 +19°C° 0 mm 1 mps 583 mmHg 80%
    08:00 +21°C° 0 mm 1 mps 585 mmHg 72%
    09:00 +23°C° 0 mm 1 mps 586 mmHg 65%
    10:00 +24°C° 0 mm 2 mps 586 mmHg 62%
    11:00 +25°C° 0 mm 2 mps 586 mmHg 60%
    12:00 +26°C° 0 mm 2 mps 586 mmHg 58%
    13:00 +25°C° 0.1 mm 2 mps 585 mmHg 62%
    14:00 +24°C° 0.1 mm 2 mps 584 mmHg 67%
    15:00 +24°C° 0.1 mm 2 mps 583 mmHg 71%
    16:00 +21°C° 0.1 mm 2 mps 582 mmHg 78%
    17:00 +20°C° 0.1 mm 2 mps 582 mmHg 86%
    18:00 +20°C° 0.1 mm 1 mps 582 mmHg 93%
    19:00 +20°C° 0 mm 1 mps 582 mmHg 93%
    20:00 +19°C° 0 mm 1 mps 583 mmHg 93%
    21:00 +19°C° 0 mm 1 mps 584 mmHg 93%
    22:00 +17°C° 0 mm 0 mps 583 mmHg 92%
    23:00 +16°C° 0 mm 0 mps 583 mmHg 92%
    Show more